Regional Weather Roundup
Issued by NWS Newport/Morehead, NC

Current Version | Previous Version | Graphics & Text | Print | Product List | Glossary On
Versions: 1 2 3 4 5 6 7 8 9 10 11 12 13 14 15 16 17 18 19 20 21 22 23 24 25 26 27 28 29 30 31 32 33 34 35 36 37 38 39 40 41 42 43 44 45 46 47 48 49 50
000 ASUS42 KMHX 012013 RWRMHX WEATHER ROUNDUP FOR EASTERN NORTH CAROLINA NATIONAL WEATHER SERVICE NEWPORT/MOREHEAD CITY NC 400 PM EDT WED JUL 01 2015 NOTE: "FAIR" INDICATES FEW OR NO CLOUDS BELOW 12,000 FEET WITH NO SIGNIFICANT WEATHER AND/OR OBSTRUCTIONS TO VISIBILITY NCZ015>017-031-032-045>047-102-103-012100- NORTH COAST CITY SKY/WX TMP DP RH WIND PRES REMARKS EDENTON N/A 85 69 57 SW7 29.92F ELIZABETH CITY SUNNY 85 68 56 SW8 29.91F KITTY HAWK CLEAR 89 67 47 NW3 29.91S MANTEO SUNNY 87 66 50 W8 29.92F $$ NCZ045>047-081-094-103-104-012100- CENTRAL COAST CITY SKY/WX TMP DP RH WIND PRES REMARKS FRISCO SUNNY 82 74 76 SW14G22 29.94F SWANQUARTER N/A 88 N/A N/A CALM 29.88F $$ NCZ095-097-098-100-101-012100- SOUTHERN COAST CITY SKY/WX TMP DP RH WIND PRES REMARKS BEAUFORT SUNNY 83 74 74 SW16 29.95S CEDAR ISLAND N/A 88 N/A N/A SW9G18 29.97S JACKSONVILLE MOSUNNY 85 71 63 W6 29.92F PINEY ISLAND LGT RAIN N/A N/A N/A S10 29.93F WILMINGTON MOSUNNY 87 70 56 W12 29.94F $$ NCZ011>013-027>030-043-044-078>080-089-090>093-098-012100- COASTAL PLAIN CITY SKY/WX TMP DP RH WIND PRES REMARKS AHOSKIE SUNNY 84 68 58 CALM 29.92S CLINTON MOSUNNY 82 72 72 SW6 29.96S ELIZABETHTOWN PTSUNNY 82 70 66 SW8 29.96S GOLDSBORO SUNNY 85 71 62 SW9 29.92F GREENVILLE SUNNY 88 66 48 SW7 29.94F HAVELOCK PTSUNNY 85 73 67 VRB7 29.94F KENANSVILLE MOSUNNY 81 69 67 SW8 29.96S KINSTON MOSUNNY 86 70 58 S9 29.94F NEW BERN SUNNY 86 72 62 W8 29.94F RICHLANDS MOSUNNY 84 70 61 SW6 29.94F ROCKY MOUNT MOSUNNY 89 68 49 SW10 29.93R WASHINGTON SUNNY 86 67 54 SW9 29.93F WHITEVILLE MOSUNNY 84 71 66 SW5 29.96S $$ AMZ130-135-150-152-154-156-158-170-250-252-270-ANZ085-086-088-633-658-670-012100- MARINE OBSERVATIONS STATION/POSITION TIME TEMP WIND PRES WAVE SWELL AIR SEA DIR/SP/G HT/PER HT/PER (UTC) (F) (DEG/KT/KT) (MB) (FT/S) (FT/S) CHESAPEAKE LIGHT 2000 78 340/ 3/ 3 1013.1 64 E VA BEACH 1950 78 77 230/ 12/ 14 1012.3 5/ 8 5/ 8 DUCK 1900 82 61 240/ 11/ 14 1012.3 2 E DUCK 1911 72 N/A 2/ 8 OREGON INLET 1900 81 83 190/ 16/ 17 1013.5 13E OREGON INLT 2000 74 N/A 4/ 7 HATTERAS CG 1900 81 81 220/ 12/ 17 1013.9 DIAMOND BUOY 1950 81 83 230/ 19/ 21 1013.7 5/ 6 3/ 7 CAPE LOOKOUT 2000 82 230/ 13/ 17 1014.0 BEAUFORT LAB 1900 82 81 220/ 8/ 13 1013.6 30 SE NEW RVR IN 1908 80 81 240/ 16/ 19 1015.5 27 SE WRIGHTSVLE 1900 80 240/ 14/ 16 N/A 5 SE WRIGHTSVLE 1908 80 81 210/ 14/ 19 1014.6 225 S CAPE HAT 1950 81 80 220/ 17/ 21 1018.5 7/ 6 2/12 41 SE CHARLESTON 1950 80 82 230/ 16/ 17 1015.5 5/ 8 2/ 8 $$

USA.gov is the U.S. government's official web portal to all federal, state and local government web resources and services.